Altoona, PA

12:48 AM EST on February 21, 2018 (GMT -0500)
Altoona-Blair County

Weather History for KAOO - October, 2014

Change the Weather History Date:

Saturday, October 18, 2014

  Actual Average Record
Temperature  
Mean Temperature 54 °F 50 °F  
Max Temperature 63 °F 61 °F 81 °F (1998)
Min Temperature 45 °F 40 °F 25 °F (1978)
Degree Days  
Heating Degree Days 11 15  
Month to date heating degree days 164 221  
Since 1 July heating degree days 322 392  
Cooling Degree Days 0 0  
Month to date cooling degree days 2 0  
Year to date cooling degree days 521 522  
Growing Degree Days 3 (Base 50)    
Moisture  
Dew Point 43 °F    
Average Humidity 72    
Maximum Humidity 80    
Minimum Humidity 64    
Precipitation  
Precipitation T in 0.08 in 1.80 in (1996)
Month to date precipitation 2.90 1.48  
Year to date precipitation 32.28 25.86  
Sea Level Pressure  
Sea Level Pressure 29.76 in    
Wind  
Wind Speed 13 mph (WNW)    
Max Wind Speed 22 mph    
Max Gust Speed 28 mph    
Visibility 10 miles    
Events Rain    
T = Trace of Precipitation, MM = Missing Value Source: NWS Daily Summary

Daily Weather History Graph

Daily Weather History Graph

Search for Another Location

Airport or City:

Trip Planner

Search our weather history database for the weather conditions in past years. The results will help you decide how hot, cold, wet, or windy it might be!

Date:

Astronomy

Oct. 18, 2014 Rise Set
Actual Time 7:27 AM EDT 6:28 PM EDT
Civil Twilight 6:59 AM EDT 6:56 PM EDT
Nautical Twilight 6:28 AM EDT 7:28 PM EDT
Astronomical Twilight 5:56 AM EDT 7:59 PM EDT
Moon 2:23 AM EDT (10/18) 3:48 PM EDT (10/18)
Length of Visible Light 11h 56m
Length of Day
11h 01m
Waning Crescent, 24% of the Moon is Illuminated
Oct 18
Waning Crescent
Oct 23
New
Oct 30
First Quarter
Nov 6
Full
Nov 14
Last Quarter

Hourly Weather History & Observations

Time (EDT) Temp. Windchill Dew Point Humidity Pressure Visibility Wind Dir Wind Speed Gust Speed Precip Events Conditions
1:53 AM 61.0 °F - 51.1 °F 70% 29.63 in 10.0 mi West 9.2 mph - N/A   Overcast
2:53 AM 60.1 °F - 48.9 °F 67% 29.62 in 10.0 mi WSW 9.2 mph - 0.00 in   Overcast
3:53 AM 59.0 °F - 48.9 °F 69% 29.62 in 10.0 mi West 15.0 mph 20.7 mph 0.00 in   Overcast
4:53 AM 57.9 °F - 46.0 °F 65% 29.62 in 10.0 mi WSW 15.0 mph - N/A   Overcast
5:53 AM 57.0 °F - 46.0 °F 67% 29.64 in 10.0 mi West 15.0 mph 19.6 mph N/A   Overcast
6:53 AM 55.9 °F - 45.0 °F 67% 29.67 in 10.0 mi West 13.8 mph 23.0 mph N/A   Overcast
7:53 AM 55.0 °F - 46.0 °F 72% 29.68 in 10.0 mi WSW 11.5 mph - N/A   Overcast
8:53 AM 54.0 °F - 45.0 °F 72% 29.69 in 10.0 mi West 16.1 mph 23.0 mph N/A   Overcast
9:53 AM 53.1 °F - 46.9 °F 80% 29.70 in 10.0 mi WSW 11.5 mph - 0.00 in Rain Light Rain
10:06 AM 52.0 °F - 46.9 °F 83% 29.71 in 10.0 mi West 12.7 mph - 0.00 in   Overcast
10:53 AM 52.0 °F - 45.0 °F 77% 29.72 in 10.0 mi NW 15.0 mph 21.9 mph 0.00 in   Overcast
11:32 AM 50.0 °F - 45.0 °F 83% 29.74 in 10.0 mi WNW 15.0 mph - 0.00 in   Overcast
11:53 AM 50.0 °F - 44.1 °F 80% 29.74 in 10.0 mi WNW 12.7 mph - 0.00 in   Overcast
12:53 PM 48.0 °F - 44.1 °F 86% 29.76 in 10.0 mi NW 15.0 mph - 0.00 in Rain Light Rain
1:27 PM 48.9 °F - 42.1 °F 77% 29.76 in 10.0 mi WNW 15.0 mph - 0.00 in   Overcast
1:53 PM 52.0 °F - 44.1 °F 74% 29.75 in 10.0 mi WNW 16.1 mph - 0.00 in   Mostly Cloudy
2:37 PM 50.0 °F - 42.1 °F 74% 29.76 in 10.0 mi NW 12.7 mph 19.6 mph N/A   Mostly Cloudy
2:53 PM 51.1 °F - 42.1 °F 71% 29.76 in 10.0 mi West 15.0 mph 20.7 mph N/A   Overcast
3:13 PM 53.1 °F - 42.1 °F 66% 29.77 in 10.0 mi WNW 17.3 mph 24.2 mph N/A   Mostly Cloudy
3:53 PM 52.0 °F - 41.0 °F 66% 29.77 in 10.0 mi West 16.1 mph 23.0 mph N/A   Overcast
4:53 PM 50.0 °F - 41.0 °F 71% 29.79 in 10.0 mi WNW 17.3 mph 23.0 mph 0.00 in   Overcast
5:53 PM 48.9 °F - 39.9 °F 71% 29.82 in 10.0 mi WNW 13.8 mph - N/A   Overcast
6:13 PM 48.9 °F - 41.0 °F 74% 29.82 in 10.0 mi WNW 10.4 mph 18.4 mph 0.00 in Rain Light Rain
6:35 PM 48.0 °F - 41.0 °F 77% 29.83 in 10.0 mi WNW 9.2 mph - 0.00 in   Overcast
6:53 PM 48.0 °F - 41.0 °F 77% 29.84 in 10.0 mi West 8.1 mph - 0.00 in   Overcast
7:44 PM 48.9 °F - 39.9 °F 71% 29.84 in 10.0 mi WNW 12.7 mph - N/A   Overcast
7:53 PM 48.0 °F - 39.0 °F 71% 29.85 in 10.0 mi WNW 15.0 mph 25.3 mph N/A   Overcast
8:53 PM 48.0 °F - 39.9 °F 74% 29.87 in 10.0 mi NW 10.4 mph - N/A   Overcast
9:53 PM 46.9 °F - 39.9 °F 77% 29.88 in 10.0 mi NW 15.0 mph 21.9 mph N/A   Overcast
10:53 PM 45.0 °F 39.7 °F 41.0 °F 86% 29.90 in 10.0 mi NW 10.4 mph 23.0 mph 0.00 in Rain Light Rain
11:53 PM 45.0 °F 40.6 °F 41.0 °F 86% 29.91 in 10.0 mi NW 8.1 mph - 0.00 in Rain Light Rain